This is the latest recevied weather packets stored in our database for station/object KG2V. If no packets are shown the sender has not sent any weather packets the latest 1 day(s).
| Time | Temp. | Humidity | Pressure | Rain* | Wind** | Luminosity | Snow |
|---|---|---|---|---|---|---|---|
| 1778008894 | 19.44° C | 67% | 1001.3 hPa | 0 mm | 1.34 m/s, 246° | 123 W/m² | - |
| 1778008593 | 19.44° C | 66% | 1001.3 hPa | 0 mm | 1.34 m/s, 208° | 165 W/m² | - |
| 1778008291 | 20° C | 65% | 1001.4 hPa | 0 mm | 1.79 m/s, 267° | 399 W/m² | - |
| 1778007986 | 20° C | 65% | 1001.2 hPa | 0 mm | 2.68 m/s, 220° | 450 W/m² | - |
| 1778007681 | 19.44° C | 65% | 1001.3 hPa | 0 mm | 3.13 m/s, 258° | 476 W/m² | - |
| 1778007378 | 19.44° C | 65% | 1001.5 hPa | 0 mm | 4.02 m/s, 234° | 438 W/m² | - |
| 1778007074 | 20° C | 65% | 1001.4 hPa | 0 mm | 1.34 m/s, 245° | 441 W/m² | - |
| 1778006771 | 20° C | 65% | 1001.3 hPa | 0 mm | 1.34 m/s, 220° | 496 W/m² | - |
| 1778006468 | 19.44° C | 65% | 1001.3 hPa | 0 mm | 3.13 m/s, 187° | 440 W/m² | - |
| 1778006165 | 19.44° C | 65% | 1001.1 hPa | 0 mm | 1.34 m/s, 242° | 496 W/m² | - |
| 1778005863 | 19.44° C | 65% | 1001.3 hPa | 0 mm | 2.68 m/s, 271° | 302 W/m² | - |
| 1778005559 | 20° C | 64% | 1001.3 hPa | 0 mm | 1.79 m/s, 214° | 569 W/m² | - |
| 1778005256 | 19.44° C | 65% | 1000.7 hPa | 0 mm | 3.13 m/s, 242° | 565 W/m² | - |
| 1778004953 | 19.44° C | 64% | 1001.1 hPa | 0 mm | 2.68 m/s, 226° | 615 W/m² | - |
| 1778004650 | 18.89° C | 67% | 1000.9 hPa | 0 mm | 2.68 m/s, 250° | 303 W/m² | - |
| 1778004345 | 18.89° C | 66% | 1000.8 hPa | 0 mm | 2.68 m/s, 267° | 434 W/m² | - |
| 1778004044 | 18.89° C | 66% | 1001 hPa | 0 mm | 0.89 m/s, 277° | 305 W/m² | - |
| 1778003743 | 18.89° C | 66% | 1000.8 hPa | 0 mm | 2.24 m/s, 217° | 347 W/m² | - |
| 1778003440 | 19.44° C | 66% | 1000.9 hPa | 0 mm | 1.79 m/s, 247° | 271 W/m² | - |
| 1778003137 | 18.89° C | 66% | 1000.9 hPa | 0 mm | 4.02 m/s, 280° | 345 W/m² | - |
| 1778002833 | 18.89° C | 66% | 1000.8 hPa | 0 mm | 1.34 m/s, 247° | 131 W/m² | - |
| 1778002530 | 19.44° C | 64% | 1000.8 hPa | 0 mm | 2.24 m/s, 239° | 180 W/m² | - |
| 1778002227 | 19.44° C | 64% | 1000.6 hPa | 0 mm | 2.68 m/s, 215° | 221 W/m² | - |
| 1778001925 | 19.44° C | 63% | 1000.6 hPa | 0 mm | 3.13 m/s, 246° | 218 W/m² | - |
| 1778001621 | 20° C | 64% | 1000.6 hPa | 0 mm | 2.24 m/s, 179° | 195 W/m² | - |
* Rain latest hour (hover to see other rain measurements)
** Current wind speed in m/s (hover to see current wind gust speed)